STARLINK-33964, 64118

Orbit data source: Space-Track

STARLINK-33964, 64118 is a payload satellite owned by SpaceX/Seattle (US) in LEO that was launched on Fri, 23 May 2025 UTC via an FALCON 9 launch vehicle from the Air Force Western Test Range (AFWTR). Payload-class satellites include a variety of spacecraft equipped with specific instruments for various scientific and technological missions. These include communications satellites like Starlink; space stations such as the ISS; scientific satellites like the Hubble; Earth observation satellites from companies like Planet Labs, Umbra, and HawkEye 360; GPS; miniature CubeSats for education and research; and military/defense satellites.

Loading next visibility...
Identifier
64118, 2025-110Y
Orbit
LEO
Country
Flag of USUS
Related business
Manufacturer
SpaceX/Seattle
Mission
Operational Commercial Communications
Bus & Motor
STARLINK V2MO, Unknown motor
Mass
575 kg wet, ~530 kg dry
Launch date (UTC)
2025-05-23 (1 year ago)
Launch vehicle
FALCON 9
Launch site
Air Force Western Test Range (AFWTR)
Object type
Payload
Rocket body
Debris
Shape & HBR
Box + 2 Pan, 17.7 m
Radar Cross Section
36.964 m², Large (>1 m²)

Expand to show TLE details & history
Last TLE update: 1 day ago

TLE from 1 day ago
0 STARLINK-33964
1 64118U 25110Y   26170.55156214  .00026006  00000-0  84599-3 0  9996
2 64118  53.1602 273.2238 0000929  58.5964 301.5128 15.31733237 61487
Epoch: 2026-06-19T13:14Z
TLE epoch observation values (Epoch: 2026-06-19T13:14:14.968Z)
Latitude
-0.00006°
Longitude
166.88248°
Altitude
471.209 km
Speed
7.632 km/s
True Right ascension
18h 12m 53s
True Declination
0° 00' 00"
Sunlit
Object was in full shadow at epoch
Visualization orbit readout
Latitude
Unknown
Longitude
Unknown
Altitude
Unknown
Speed
Unknown
Apparent Right ascension
Unknown
Apparent Declination
Unknown
Sunlit
N/A
Visualization observer readout
Local Sidereal Time
07:16:23
Azimuth
Unknown
Elevation
Unknown
Doppler factor
Unknown
Orbital elements
Apogee altitude
471.534 km
Perigee altitude
470.261 km
Semi-major axis
6,849.034 km
Eccentricity
0.00009
Inclination
53.1602°
RAAN
273.2238°
Arg. of periapsis
58.5964°
True anomaly
301.50372°
Mean anomaly
301.5128°
Eccentric anomaly
301.50826°
Mean motion
3.82912 °/min
Orbital period
94.02 mins
BSTAR
0.00084599
Loading maneuver chart data...
Computing Atmospheric mass density...
Loading historical data...
Loading historical data...
Loading historical data...
Loading historical data...
Loading historical data...
Loading historical data...
Loading historical data...

Documentation

Showing up to 5 results
|